Weather History for Falfurrias, TX

Change the Weather History Date:

Monday, January 21, 2013

  Actual Average (KNQI) Record (KNQI)
Temperature  
Mean Temperature 64 °F -  
Max Temperature 77 °F 68 °F 88 °F (1999)
Min Temperature 52 °F 47 °F 33 °F (2009)
Growing Degree Days 14 (Base 50)    
Moisture  
Dew Point 52 °F    
Average Humidity 73    
Maximum Humidity 96    
Minimum Humidity 30    
Precipitation  
Precipitation 0.00 in - - ()
Sea Level Pressure  
Sea Level Pressure 30.15 in    
Wind  
Wind Speed 3 mph (ENE)    
Max Wind Speed 14 mph    
Max Gust Speed 20 mph    
Visibility 10 miles    
Events      
Averages and records for this station are not official NWS values.
T = Trace of Precipitation, MM = Missing Value Source: NWS Daily Summary

Daily Weather History Graph

Daily Weather History Graph

Search for Another Location

Airport:

Trip Planner

Search our weather history database for the weather conditions in past years. The results will help you decide how hot, cold, wet, or windy it might be!

Date:

Astronomy

Jan. 21, 2013 Rise Set
Actual Time 7:22 AM CST 6:05 PM CST
Civil Twilight 6:57 AM CST 6:30 PM CST
Nautical Twilight 6:29 AM CST 6:58 PM CST
Astronomical Twilight 6:01 AM CST 7:26 PM CST
Moon 1:48 PM CST (1/21) 2:51 AM CST (1/21)
Length of Visible Light 11h 32m
Length of Day
10h 43m
Waxing Gibbous, 75% of the Moon is Illuminated
Jan 21
Waxing Gibbous
Jan 26
Full
Feb 3
Last Quarter
Feb 10
New
Feb 17
First Quarter

Hourly Weather History & Observations

Time (CST) Temp. Dew Point Humidity Pressure Visibility Wind Dir Wind Speed Gust Speed Precip Events Conditions
12:15 AM 58.1 °F 54.0 °F 86% 30.15 in 10.0 mi Calm Calm - N/A   Clear
12:35 AM 56.5 °F 53.4 °F 89% 30.15 in 10.0 mi Calm Calm - N/A   Clear
12:55 AM 57.2 °F 53.8 °F 88% 30.14 in 10.0 mi Calm Calm - N/A   Clear
1:15 AM 56.5 °F 53.1 °F 88% 30.14 in 10.0 mi Calm Calm - N/A   Clear
1:35 AM 55.6 °F 52.9 °F 91% 30.14 in 10.0 mi Calm Calm - N/A   Clear
1:55 AM 55.8 °F 53.1 °F 91% 30.13 in 10.0 mi Calm Calm - N/A   Clear
2:15 AM 55.0 °F 52.5 °F 91% 30.12 in 10.0 mi Calm Calm - N/A   Clear
2:35 AM 55.4 °F 52.9 °F 91% 30.12 in 10.0 mi Calm Calm - N/A   Clear
2:55 AM 55.4 °F 53.1 °F 92% 30.11 in 10.0 mi ENE 3.5 mph - N/A   Clear
3:15 AM 55.4 °F 53.1 °F 92% 30.12 in 10.0 mi NE 3.5 mph - N/A   Clear
3:35 AM 54.9 °F 52.9 °F 93% 30.11 in 10.0 mi Calm Calm - N/A   Clear
3:55 AM 54.5 °F 52.5 °F 93% 30.11 in 10.0 mi Calm Calm - N/A   Clear
4:15 AM 54.5 °F 52.7 °F 94% 30.11 in 10.0 mi Calm Calm - N/A   Clear
4:35 AM 54.3 °F 52.3 °F 93% 30.11 in 10.0 mi Calm Calm - N/A   Scattered Clouds
4:55 AM 53.8 °F 52.2 °F 94% 30.11 in 10.0 mi NE 3.5 mph - N/A   Mostly Cloudy
5:15 AM 54.5 °F 52.7 °F 94% 30.10 in 10.0 mi Calm Calm - N/A   Scattered Clouds
5:35 AM 54.7 °F 52.7 °F 93% 30.11 in 10.0 mi Calm Calm - N/A   Scattered Clouds
5:55 AM 54.0 °F 52.2 °F 94% 30.11 in 10.0 mi Calm Calm - N/A   Clear
6:15 AM 53.1 °F 51.6 °F 95% 30.11 in 10.0 mi NNE 3.5 mph - N/A   Clear
6:35 AM 53.6 °F 51.8 °F 94% 30.11 in 10.0 mi NE 3.5 mph - N/A   Scattered Clouds
6:55 AM 53.1 °F 51.8 °F 95% 30.12 in 10.0 mi Calm Calm - N/A   Scattered Clouds
7:15 AM 52.7 °F 51.3 °F 95% 30.13 in 10.0 mi NNE 3.5 mph - N/A   Clear
7:35 AM 52.2 °F 50.9 °F 95% 30.13 in 10.0 mi NE 3.5 mph - N/A   Clear
7:55 AM 52.7 °F 51.4 °F 95% 30.14 in 7.0 mi Calm Calm - N/A   Scattered Clouds
8:15 AM 53.1 °F 51.8 °F 95% 30.15 in 7.0 mi Calm Calm - N/A   Scattered Clouds
8:35 AM 53.8 °F 52.7 °F 96% 30.16 in 7.0 mi NNE 3.5 mph - N/A   Scattered Clouds
8:55 AM 55.0 °F 53.6 °F 95% 30.18 in 10.0 mi NNE 3.5 mph - N/A   Mostly Cloudy
9:15 AM 56.3 °F 54.7 °F 94% 30.19 in 10.0 mi ENE 3.5 mph - N/A   Overcast
9:35 AM 58.6 °F 55.9 °F 91% 30.19 in 10.0 mi Calm Calm - N/A   Mostly Cloudy
9:55 AM 61.7 °F 56.8 °F 84% 30.21 in 10.0 mi Calm Calm - N/A   Mostly Cloudy
10:15 AM 64.6 °F 57.0 °F 76% 30.22 in 10.0 mi Calm Calm - N/A   Mostly Cloudy
10:35 AM 67.3 °F 57.4 °F 70% 30.22 in 10.0 mi East 3.5 mph - N/A   Clear
10:55 AM 69.3 °F 57.0 °F 65% 30.22 in 10.0 mi ESE 4.6 mph - N/A   Clear
11:15 AM 71.1 °F 57.2 °F 61% 30.22 in 10.0 mi ESE 5.8 mph - N/A   Clear
11:35 AM 72.1 °F 58.1 °F 61% 30.22 in 10.0 mi ESE 5.8 mph - N/A   Clear
11:55 AM 72.5 °F 58.5 °F 61% 30.21 in 10.0 mi ESE 5.8 mph - N/A   Clear
12:15 PM 73.9 °F 58.6 °F 59% 30.20 in 10.0 mi East 8.1 mph - N/A   Clear
12:35 PM 74.3 °F 58.8 °F 58% 30.19 in 10.0 mi ESE 6.9 mph - N/A   Scattered Clouds
12:55 PM 74.1 °F 58.3 °F 58% 30.18 in 10.0 mi East 6.9 mph - N/A   Mostly Cloudy
1:15 PM 75.6 °F 56.1 °F 51% 30.17 in 10.0 mi East 9.2 mph - N/A   Scattered Clouds
1:35 PM 75.2 °F 54.9 °F 49% 30.16 in 10.0 mi ESE 8.1 mph - N/A   Scattered Clouds
1:55 PM 75.9 °F 52.5 °F 44% 30.15 in 10.0 mi East 11.5 mph - N/A   Scattered Clouds
2:15 PM 76.1 °F 53.1 °F 45% 30.14 in 10.0 mi ESE 10.4 mph - N/A   Clear
2:35 PM 76.1 °F 52.7 °F 44% 30.14 in 10.0 mi ESE 6.9 mph - N/A   Scattered Clouds
2:55 PM 77.0 °F 52.5 °F 42% 30.13 in 10.0 mi East 6.9 mph - N/A   Scattered Clouds
3:15 PM 76.6 °F 51.6 °F 42% 30.13 in 10.0 mi ESE 9.2 mph - N/A   Scattered Clouds
3:35 PM 77.0 °F 50.0 °F 39% 30.13 in 10.0 mi East 9.2 mph - N/A   Clear
3:55 PM 77.2 °F 50.5 °F 39% 30.12 in 10.0 mi ENE 12.7 mph - N/A   Clear
4:15 PM 76.5 °F 50.2 °F 40% 30.12 in 10.0 mi ENE 11.5 mph 16.1 mph N/A   Clear
4:35 PM 76.3 °F 45.1 °F 33% 30.12 in 10.0 mi ENE 12.7 mph - N/A   Clear
4:55 PM 75.4 °F 42.6 °F 31% 30.13 in 10.0 mi ENE 13.8 mph 19.6 mph N/A   Clear
5:15 PM 74.5 °F 41.4 °F 30% 30.13 in 10.0 mi ENE 11.5 mph - N/A   Clear
5:35 PM 73.4 °F 43.2 °F 34% 30.13 in 10.0 mi ENE 10.4 mph - N/A   Clear
5:55 PM 72.3 °F 43.7 °F 36% 30.14 in 10.0 mi ENE 9.2 mph - N/A   Clear
6:15 PM 70.3 °F 43.2 °F 37% 30.15 in 10.0 mi ENE 9.2 mph - N/A   Clear
6:35 PM 67.8 °F 44.1 °F 42% 30.15 in 10.0 mi ENE 5.8 mph - N/A   Clear
6:55 PM 66.2 °F 46.6 °F 49% 30.15 in 10.0 mi ENE 5.8 mph - N/A   Clear
7:15 PM 64.4 °F 47.7 °F 55% 30.16 in 10.0 mi East 6.9 mph - N/A   Clear
7:35 PM 63.7 °F 49.1 °F 59% 30.16 in 10.0 mi ENE 5.8 mph - N/A   Clear
7:55 PM 62.6 °F 50.0 °F 63% 30.17 in 10.0 mi ENE 4.6 mph - N/A   Clear
8:15 PM 61.9 °F 50.7 °F 67% 30.17 in 10.0 mi ENE 4.6 mph - N/A   Clear
8:35 PM 60.8 °F 50.0 °F 68% 30.18 in 10.0 mi East 3.5 mph - N/A   Clear
8:55 PM 59.9 °F 50.0 °F 70% 30.19 in 10.0 mi East 3.5 mph - N/A   Clear
9:15 PM 58.5 °F 50.2 °F 74% 30.19 in 10.0 mi East 3.5 mph - N/A   Clear
9:35 PM 57.6 °F 50.0 °F 76% 30.20 in 10.0 mi ENE 3.5 mph - N/A   Clear
9:55 PM 57.2 °F 51.6 °F 82% 30.19 in 10.0 mi ENE 4.6 mph - N/A   Clear
10:15 PM 56.8 °F 53.1 °F 87% 30.20 in 10.0 mi ENE 3.5 mph - N/A   Clear
10:35 PM 56.3 °F 53.6 °F 91% 30.19 in 10.0 mi NE 4.6 mph - N/A   Clear
10:55 PM 55.9 °F 53.8 °F 92% 30.20 in 10.0 mi NE 3.5 mph - N/A   Clear
11:15 PM 55.2 °F 53.4 °F 94% 30.20 in 10.0 mi ENE 3.5 mph - N/A   Clear
11:35 PM 54.1 °F 52.7 °F 95% 30.19 in 7.0 mi NE 4.6 mph - N/A   Clear
11:55 PM 53.6 °F 52.3 °F 95% 30.19 in 5.0 mi ENE 4.6 mph - N/A   Clear